TimeCST,TemperatureF,Dew PointF,Humidity,Sea Level PressureIn,VisibilityMPH,Wind Direction,Wind SpeedMPH,Gust SpeedMPH,PrecipitationIn,Events,Conditions,WindDirDegrees,DateUTC
12:52 AM,-9.9,-15.0,78,30.40,10.0,WNW,4.6,-,N/A,,Clear,300,2014-02-03 06:52:00
1:52 AM,-11.0,-15.0,83,30.40,10.0,Calm,Calm,-,N/A,,Clear,0,2014-02-03 07:52:00
2:52 AM,-11.9,-16.1,82,30.41,10.0,WNW,4.6,-,N/A,,Clear,300,2014-02-03 08:52:00
3:52 AM,-11.9,-16.1,82,30.41,8.0,Calm,Calm,-,N/A,,Clear,0,2014-02-03 09:52:00
4:52 AM,-9.0,-14.1,79,30.42,8.0,Calm,Calm,-,N/A,,Clear,0,2014-02-03 10:52:00
5:52 AM,-11.0,-15.0,83,30.42,6.0,Calm,Calm,-,N/A,,Clear,0,2014-02-03 11:52:00
6:52 AM,-9.9,-14.1,82,30.43,7.0,South,3.5,-,N/A,,Clear,190,2014-02-03 12:52:00
7:52 AM,-5.1,-9.9,80,30.44,5.0,Calm,Calm,-,N/A,,Haze,0,2014-02-03 13:52:00
8:52 AM,-0.9,-6.0,79,30.43,5.0,SSE,4.6,-,N/A,,Haze,150,2014-02-03 14:52:00
9:52 AM,8.1,1.9,76,30.44,5.0,South,4.6,-,N/A,,Haze,180,2014-02-03 15:52:00
10:52 AM,10.0,1.0,67,30.45,10.0,SSW,6.9,-,N/A,,Clear,210,2014-02-03 16:52:00
11:52 AM,12.9,1.9,62,30.43,10.0,WSW,3.5,-,N/A,,Clear,240,2014-02-03 17:52:00
12:52 PM,17.1,3.0,54,30.40,9.0,Calm,Calm,-,0.00,Snow,Light Snow,0,2014-02-03 18:52:00
1:52 PM,19.0,3.0,50,30.39,9.0,Calm,Calm,-,0.00,Snow,Light Snow,0,2014-02-03 19:52:00
2:52 PM,18.0,3.9,54,30.38,10.0,Calm,Calm,-,0.00,,Clear,0,2014-02-03 20:52:00
3:52 PM,18.0,1.9,50,30.40,10.0,SSW,5.8,-,N/A,,Clear,200,2014-02-03 21:52:00
4:52 PM,15.1,1.0,54,30.40,10.0,South,8.1,-,N/A,,Clear,190,2014-02-03 22:52:00
5:52 PM,10.9,-0.9,59,30.39,10.0,South,3.5,-,N/A,,Clear,180,2014-02-03 23:52:00
6:52 PM,10.9,-0.9,59,30.40,10.0,SSE,3.5,-,N/A,,Clear,150,2014-02-04 00:52:00
7:52 PM,10.0,-0.9,61,30.38,10.0,SSE,6.9,-,N/A,,Clear,150,2014-02-04 01:52:00
8:52 PM,5.0,-2.9,70,30.39,10.0,SSE,5.8,-,N/A,,Clear,160,2014-02-04 02:52:00
9:52 PM,7.0,-2.0,67,30.40,10.0,SE,5.8,-,N/A,,Clear,140,2014-02-04 03:52:00
10:52 PM,9.0,1.0,70,30.40,10.0,Calm,Calm,-,N/A,,Clear,0,2014-02-04 04:52:00
11:52 PM,10.0,1.9,70,30.41,10.0,Calm,Calm,-,N/A,,Partly Cloudy,0,2014-02-04 05:52:00